Regional Weather Roundup
Issued by NWS Newport/Morehead, NC

Current Version | Previous Version | Graphics & Text | Print | Product List | Glossary Off
Versions: 1 2 3 4 5 6 7 8 9 10 11 12 13 14 15 16 17 18 19 20 21 22 23 24 25 26 27 28 29 30 31 32 33 34 35 36 37 38 39 40 41 42 43 44 45 46 47 48 49 50

000
ASUS42 KMHX 281213
RWRMHX
WEATHER ROUNDUP FOR EASTERN NORTH CAROLINA
NATIONAL WEATHER SERVICE NEWPORT/MOREHEAD CITY NC
800 AM EDT SUN MAY 28 2017

NOTE: "FAIR" INDICATES FEW OR NO CLOUDS BELOW 12,000 FEET
WITH NO SIGNIFICANT WEATHER AND/OR OBSTRUCTIONS TO VISIBILITY

NCZ015>017-031-032-045>047-102-103-281300-
NORTH COAST

CITY           SKY/WX    TMP DP  RH WIND       PRES   REMARKS
EDENTON        MOSUNNY   74  70  87 CALM      29.83F
ELIZABETH CITY SUNNY     73  69  87 E6        29.84S
KITTY HAWK     SUNNY     70  62  78 CALM      29.83S
MANTEO         SUNNY     71  65  80 E3        29.85R

$$

NCZ045>047-081-094-103-104-281300-
CENTRAL COAST

CITY           SKY/WX    TMP DP  RH WIND       PRES   REMARKS
FRISCO         SUNNY     76  71  85 SW5       29.84S

$$

NCZ095-097-098-100-101-281300-
SOUTHERN COAST

CITY           SKY/WX    TMP DP  RH WIND       PRES   REMARKS
BEAUFORT       SUNNY     77  74  90 SW7       29.86R
CEDAR ISLAND   NOT AVBL
JACKSONVILLE   CLOUDY    76  70  82 SW6       29.84R
PINEY ISLAND   NOT AVBL
WILMINGTON     PTSUNNY   76  68  76 SW7       29.86R


$$

NCZ011>013-027>030-043-044-078>080-089-090>093-098-281300-
COASTAL PLAIN

CITY           SKY/WX    TMP DP  RH WIND       PRES   REMARKS
AHOSKIE        NOT AVBL
CLINTON        PTSUNNY   73  69  87 SE3       29.84R
ELIZABETHTOWN  CLOUDY    73  66  76 S6        29.85S
GOLDSBORO      PTSUNNY   74  73  96 W3        29.83R
GREENVILLE     CLOUDY    73  72  94 CALM      29.86R
HAVELOCK       CLOUDY    75  69  81 SW3       29.86R
KENANSVILLE    MOSUNNY   73  68  83 CALM      29.85R
KINSTON        PTSUNNY   75  70  83 SW3       29.84R
NEW BERN       CLOUDY    74  70  87 SW5       29.85R
RICHLANDS      PTSUNNY   75  69  81 S7        29.85R
ROCKY MOUNT    CLOUDY    71  69  93 SE3       29.83R
WASHINGTON     CLOUDY    73  69  88 SW3       29.84R
WHITEVILLE     MOSUNNY   72  66  82 CALM      29.86R

$$

AMZ130-135-150-152-154-156-158-170-250-252-270-ANZ085-086-088-633-658-670-281300-
MARINE OBSERVATIONS

STATION/POSITION TIME  TEMP    WIND        PRES    WAVE   SWELL
                       AIR SEA DIR/SP/G            HT/PER HT/PER
                 (UTC) (F)     (DEG/KT/KT) (MB)    (FT/S) (FT/S)
CHESAPEAKE LIGHT NOT AVBL
64 E VA BEACH    1150   65 64   70/  6/  6 1010.9    3/ 5   2/ 5
DUCK             1148   69 67  130/  5/  6 1009.9
2 E DUCK         1200      67                N/A     1/ 8
OREGON INLET     1142   70 70   50/  6/  9 1010.1
13E OREGON INLT  1148      67                N/A     3/ 6   3/ 6
HATTERAS CG      1148   75 73  220/  7/ 10 1010.2
DIAMOND BUOY     1150   76 76  230/ 12/ 14 1010.2    3/ 6   2/ 6
CAPE LOOKOUT     1200   76     220/  8/ 10 1010.6
BEAUFORT LAB     1148   76 73  240/  4/  8 1010.1
30 SE NEW RVR IN 1108   76     240/ 12/ 16 1010.7
30 SE NEW RVR IN 1143      76                N/A     3/ 5
27 SE WRIGHTSVLE 1108   75 77  220/ 14/ 17 1009.9
5 SE WRIGHTSVLE  1108   75 75  220/ 10/ 16 1010.5
225 S CAPE HAT   1150   76 77  230/ 16/ 17 1014.5    3/ 7   2/ 7
41 SE CHARLESTON 1150   76 75  230/ 12/ 14 1012.5    3/ 5   2/ 8

$$



USA.gov is the U.S. government's official web portal to all federal, state and local government web resources and services.